Regional Weather Roundup
Issued by NWS

Home | Current Version | Previous Version | Text Only | Print | Product List | Glossary Off
Versions: 1 2 3 4 5 6 7 8 9 10 11 12 13 14 15 16 17 18 19 20 21 22 23 24 25 26 27 28 29 30 31 32 33 34 35 36 37 38 39 40 41 42 43 44 45 46 47 48 49 50

000
ASUS43 KMKX 022210
RWRWI

WISCONSIN REGIONAL WEATHER ROUNDUP
NATIONAL WEATHER SERVICE MILWAUKEE/SULLIVAN WI
400 PM CST MON MAR 02 2015

NOTE: "FAIR" INDICATES FEW OR NO CLOUDS BELOW 12,000 FEET WITH NO
SIGNIFICANT WEATHER AND/OR OBSTRUCTIONS TO VISIBILITY.

WIZ001-002-006>008-014>016-023>028-022300-
NORTHWEST WISCONSIN

CITY           SKY/WX    TMP DP  RH WIND       PRES   REMARKS
SUPERIOR ARPT  SUNNY     29   7  38 SW12      30.24F WCI  20
ASHLAND        SUNNY     29   3  33 SW9       30.26F WCI  20
HAYWARD        SUNNY     24   4  42 S12       30.26F WCI  13
SIREN          SUNNY     26   6  42 SW10      30.28F WCI  16
CUMBERLAND     SUNNY     23   3  42 SW9       30.28F WCI  13
RICE LAKE      SUNNY     25   4  40 S12       30.30F WCI  14
CHETEK         SUNNY     24   5  43 S9        30.30F WCI  15
LADYSMITH      SUNNY     26   4  39 S9        30.30F WCI  17
EAU CLAIRE     SUNNY     25   6  44 S7        30.31F WCI  17
MENOMONIE      SUNNY     26   5  42 S8        30.32F WCI  17
NEW RICHMOND   SUNNY     24   5  44 S12       30.31S WCI  13
OSCEOLA        SUNNY     27   7  43 S13       30.32F WCI  16
$$

WIZ003>005-009-010-017-018-022300-
NORTH CENTRAL WISCONSIN

CITY           SKY/WX    TMP DP  RH WIND       PRES   REMARKS
MANITOWISH WTR SUNNY     25   1  35 S7        30.23F WCI  17
ARBOR VITAE    SUNNY     27   3  36 S9        30.24F WCI  17
WOODRUFF       SUNNY     27   3  36 S9        30.24F WCI  17
RHINELANDER    SUNNY     25   2  37 VRB7      30.26F WCI  17
EAGLE RIVER    SUNNY     26  -2  30 SW6       30.24F WCI  19
LAND O LAKES   SUNNY     28  -1  29 S6        30.24F WCI  21
PHILLIPS       SUNNY     24   2  38 S10       30.26F WCI  14
TOMAHAWK       SUNNY     27   1  33 CALM      30.27F
MEDFORD        SUNNY     20   6  53 S7        30.29F WCI  11
MERRILL        SUNNY     25   6  43 SW6       30.30F WCI  18
$$

WIZ029-030-035-036-043>047-022300-
CENTRAL WISCONSIN

CITY           SKY/WX    TMP DP  RH WIND       PRES   REMARKS
WAUSAU         SUNNY     24   2  38 W6        30.30F WCI  17
MOSINEE        SUNNY     25   5  42 CALM      30.33F
MARSHFIELD     SUNNY     24   6  46 E7        30.31F WCI  16
STEVENS POINT  SUNNY     24   2  37 CALM      30.33F
WAUPACA        SUNNY     31   4  30 S5        30.36F WCI  27
WAUTOMA        FAIR      29   5  35 S6        30.36F WCI  23
WISC RAPIDS    SUNNY     27   3  35 S6        30.34F WCI  20
CAMP DOUGLAS   PTSUNNY   28   5  37 S7        30.34F WCI  21
$$

WIZ011>013-019>022-031-037>040-048>050-022300-
NORTHEAST WISCONSIN

CITY           SKY/WX    TMP DP  RH WIND       PRES   REMARKS
ANTIGO         SUNNY     23   6  48 SW7       30.29F WCI  14
SHAWANO        SUNNY     30   5  34 SW7       30.35F WCI  23
OCONTO         SUNNY     28   8  43 S6        30.37F WCI  21
STURGEON BAY   SUNNY     27   9  46 SW8       30.39F WCI  18
GREEN BAY      SUNNY     27  14  58 S7        30.37F WCI  19
MANITOWOC      SUNNY     27  15  61 S9        30.39F WCI  18
APPLETON       MOSUNNY   27   9  46 S8        30.35F WCI  18
CLINTONVILLE   SUNNY     28   9  43 S6        30.35F WCI  22
OSHKOSH        MOSUNNY   26  11  52 SW8       30.37F WCI  18
$$

WIZ032>034-041-042-053>061-022300-
SOUTHWEST WISCONSIN

CITY           SKY/WX    TMP DP  RH WIND       PRES   REMARKS
LA CROSSE      PTSUNNY   27   9  46 S3        30.36F
SPARTA         MOSUNNY   27   1  32 S7        30.36F WCI  19
VIROQUA        PTSUNNY   26   9  50 SW5       30.32F WCI  20
BOSCOBEL       PTSUNNY   27  12  53 S5        30.38F WCI  22
PRAIRIE DU CHI PTSUNNY   28  11  49 CALM      30.37F
PLATTEVILLE    CLOUDY    24  14  65 E6        30.36F WCI  17
$$

WIZ056-057-062-063-064-067-068-022300-
SOUTH CENTRAL WISCONSIN

CITY           SKY/WX    TMP DP  RH WIND       PRES   REMARKS
REEDSBURG      PTSUNNY   27   9  46 SW3       30.35F
BARABOO/DELLS  PTSUNNY   27   7  43 CALM      30.35F
LONE ROCK      PTSUNNY   27  11  51 S9        30.38F WCI  18
MINERAL POINT  PTSUNNY   27  12  54 SW3       30.36F
MADISON        PTSUNNY   27   9  46 S6        30.38F WCI  20
MIDDLETON      MOSUNNY   29   9  44 S7        30.38F WCI  22
WATERTOWN      MOSUNNY   26   9  48 S6        30.38F WCI  20
MONROE         PTSUNNY   27  16  63 S3        30.37F
JANESVILLE     MOSUNNY   28  12  50 E3        30.39F
$$

WIZ051-052-058>065-066-070>072-022300-
SOUTHEAST WISCONSIN

CITY           SKY/WX    TMP DP  RH WIND       PRES   REMARKS
MILWAUKEE      PTSUNNY   27   8  44 S9        30.40F WCI  18
WAUKESHA       MOSUNNY   27   7  43 W3        30.39F
MILWAUKEE/TIMM SUNNY     28   3  34 CALM      30.40F
RACINE         MOSUNNY   27   9  46 CALM      30.42F
BURLINGTON     MOSUNNY   25   9  50 W3        30.40F
KENOSHA        MOSUNNY   26  14  60 E9        30.41F WCI  17
FOND DU LAC    MOSUNNY   27   8  44 VRB6      30.37F WCI  20
SHEBOYGAN      MOSUNNY   27  11  51 S6        30.39F WCI  20
WEST BEND      MOSUNNY   28   7  40 SW3       30.38F
JUNEAU         MOSUNNY   25   7  46 S6        30.39F WCI  18
$$

LSZ147-162-022300-
LAKE SUPERIOR

STATION/POSITION TIME  TEMP    WIND        PRES    WAVE
                       AIR SEA DIR/SP/G            HT/PER
                 (UTC) (F)     (DEG/KT/KT) (MB)    (FT/S)
DEVILS ISLAND    2200   26     240/  4/  5 1025.7F
PORT WING        2100   28     310/  4/  5 1025.4F
SAXON HARBOR     2100   29     150/  2/ 11 1025.7F
$$

LMZ867-665-643>646-022300-
LAKE MICHIGAN

STATION/POSITION TIME  TEMP    WIND        PRES    WAVE
                       AIR SEA DIR/SP/G            HT/PER
                 (UTC) (F)     (DEG/KT/KT) (MB)    (FT/S)
NORTHPORT PIER   2100   27     140/  5/  9 1028.8F
SISTER BAY       2113   39     250/  9/  9   N/A
KEWAUNEE LAKESHO 2100   24     170/  8/ 10 1028.9F
SHEBOYGAN LAKESH 2200   25     180/ 12/ 14 1030.6F
PORT WASHINGTON  2100   27     150/  8/ 10 1030.8
MILWAUKEE LAKESH 2100   25     130/ 12/ 14   N/A
KENOSHA   LAKESH 2100   28     140/  7/  9 1030.5F
$$

TC  - TEMPERATURE IN CELSIUS
VSB - VISIBILITY IN STATUTE MILES
WCI - WIND CHILL INDEX
HX  - HEAT INDEX



USA.gov is the U.S. government's official web portal to all federal, state and local government web resources and services.